Weather History for Tehachapi, CA

Change the Weather History Date:

Tuesday, January 3, 2012

  Actual Average Record
Temperature  
Mean Temperature 49 °F -  
Max Temperature 68 °F 49 °F 68 °F (2012)
Min Temperature 30 °F 28 °F 24 °F (2013)
Degree Days  
Heating Degree Days 16    
Moisture  
Dew Point 15 °F    
Average Humidity 31    
Maximum Humidity 51    
Minimum Humidity 13    
Precipitation  
Precipitation 0.00 in - - ()
Sea Level Pressure  
Sea Level Pressure 30.37 in    
Wind  
Wind Speed 4 mph (ESE)    
Max Wind Speed 15 mph    
Max Gust Speed 17 mph    
Visibility 9 miles    
Events      
Averages and records for this station are not official NWS values.
T = Trace of Precipitation, MM = Missing Value Source: NWS Daily Summary

Daily Weather History Graph

Daily Weather History Graph

Search for Another Location

Airport:

Trip Planner

Search our weather history database for the weather conditions in past years. The results will help you decide how hot, cold, wet, or windy it might be!

Date:

Astronomy

Jan. 03, 2012 Rise Set
Actual Time 7:02 AM PST 4:54 PM PST
Civil Twilight 6:34 AM PST 5:22 PM PST
Nautical Twilight 6:02 AM PST 5:53 PM PST
Astronomical Twilight 5:31 AM PST 6:24 PM PST
Moon 12:41 PM PST (1/3) 2:01 AM PST (1/3)
Length of Visible Light 10h 47m
Length of Day
9h 51m
Waxing Gibbous, 73% of the Moon is Illuminated
Jan 3
Waxing Gibbous
Jan 8
Full
Jan 16
Last Quarter
Jan 22
New
Jan 30
First Quarter

Hourly Weather History & Observations

Time (PST) Temp. Windchill Dew Point Humidity Pressure Visibility Wind Dir Wind Speed Gust Speed Precip Events Conditions
12:15 AM 35.6 °F 32.8 °F 10.4 °F 35% 30.38 in 10.0 mi ESE 3.5 mph - N/A   Clear
12:35 AM 33.8 °F - 10.4 °F 38% 30.38 in 10.0 mi Calm Calm - N/A   Clear
12:55 AM 35.6 °F - 10.4 °F 35% 30.40 in 10.0 mi Calm Calm - N/A   Clear
1:15 AM 33.8 °F 30.8 °F 10.4 °F 38% 30.39 in 10.0 mi NNE 3.5 mph - N/A   Clear
1:35 AM 35.6 °F - 14.0 °F 41% 30.39 in 10.0 mi Calm Calm - N/A   Clear
1:55 AM 35.6 °F 29.2 °F 14.0 °F 41% 30.39 in 10.0 mi SSE 8.1 mph - N/A   Clear
2:15 AM 37.4 °F 31.4 °F 15.8 °F 41% 30.38 in 9.0 mi ESE 8.1 mph - N/A   Clear
2:35 AM 35.6 °F - 14.0 °F 41% 30.38 in 10.0 mi Calm Calm - N/A   Clear
2:55 AM 33.8 °F 29.6 °F 14.0 °F 44% 30.37 in 10.0 mi ENE 4.6 mph - N/A   Clear
3:15 AM 33.8 °F - 12.2 °F 41% 30.36 in 10.0 mi Calm Calm - N/A   Clear
3:35 AM 32.0 °F 28.7 °F 14.0 °F 48% 30.35 in 10.0 mi ESE 3.5 mph - N/A   Clear
3:55 AM 32.0 °F 24.8 °F 14.0 °F 48% 30.34 in 9.0 mi SE 8.1 mph - N/A   Clear
4:15 AM 32.0 °F 27.5 °F 14.0 °F 48% 30.34 in 9.0 mi ENE 4.6 mph - N/A   Clear
4:35 AM 30.2 °F - 14.0 °F 51% 30.34 in 10.0 mi Calm Calm - N/A   Clear
4:55 AM 32.0 °F 27.5 °F 14.0 °F 48% 30.34 in 10.0 mi ESE 4.6 mph - N/A   Clear
5:15 AM 32.0 °F - 14.0 °F 48% 30.35 in 10.0 mi Calm Calm - N/A   Clear
5:35 AM 32.0 °F 27.5 °F 14.0 °F 48% 30.36 in 10.0 mi SE 4.6 mph - N/A   Clear
5:55 AM 30.2 °F - 14.0 °F 51% 30.35 in 10.0 mi Calm Calm - N/A   Clear
6:15 AM 32.0 °F - 14.0 °F 48% 30.35 in 10.0 mi Calm Calm - N/A   Clear
6:35 AM 30.2 °F 26.7 °F 14.0 °F 51% 30.36 in 10.0 mi SE 3.5 mph - N/A   Clear
6:55 AM 32.0 °F 27.5 °F 14.0 °F 48% 30.36 in 7.0 mi ESE 4.6 mph - N/A   Clear
7:15 AM 32.0 °F 27.5 °F 14.0 °F 48% 30.36 in 8.0 mi SE 4.6 mph - N/A   Clear
7:35 AM 32.0 °F - 14.0 °F 48% 30.37 in 8.0 mi Calm Calm - N/A   Clear
7:55 AM 35.6 °F - 15.8 °F 44% 30.37 in 8.0 mi Calm Calm - N/A   Clear
8:15 AM 39.2 °F - 15.8 °F 39% 30.38 in 7.0 mi Calm Calm - N/A   Clear
8:35 AM 44.6 °F 41.4 °F 15.8 °F 31% 30.38 in 9.0 mi SE 5.8 mph - N/A   Clear
8:55 AM 48.2 °F - 15.8 °F 27% 30.38 in 10.0 mi ENE 3.5 mph - N/A   Clear
9:15 AM 51.8 °F - 15.8 °F 24% 30.39 in 9.0 mi SSE 3.5 mph - N/A   Clear
9:35 AM 55.4 °F - 15.8 °F 21% 30.40 in 8.0 mi Calm Calm - N/A   Clear
9:55 AM 57.2 °F - 15.8 °F 20% 30.39 in 8.0 mi Calm Calm - N/A   Clear
10:15 AM 60.8 °F - 15.8 °F 17% 30.40 in 7.0 mi SSE 3.5 mph - N/A   Clear
10:35 AM 62.6 °F - 15.8 °F 16% 30.39 in 6.0 mi Calm Calm - N/A   Haze
10:55 AM 66.2 °F - 15.8 °F 14% 30.37 in 9.0 mi NW 5.8 mph - N/A   Clear
11:15 AM 66.2 °F - 15.8 °F 14% 30.36 in 8.0 mi NW 8.1 mph - N/A   Clear
11:35 AM 66.2 °F - 14.0 °F 13% 30.35 in 7.0 mi NW 8.1 mph - N/A   Clear
11:55 AM 68.0 °F - 15.8 °F 13% 30.34 in 9.0 mi NW 8.1 mph - N/A   Clear
12:15 PM 68.0 °F - 15.8 °F 13% 30.33 in 8.0 mi NW 9.2 mph - N/A   Clear
12:35 PM 68.0 °F - 15.8 °F 13% 30.33 in 9.0 mi NW 8.1 mph - N/A   Clear
1:15 PM 66.2 °F - 23.0 °F 19% 30.32 in 6.0 mi NW 10.4 mph - N/A   Haze
1:35 PM 66.2 °F - 24.8 °F 21% 30.31 in 6.0 mi NW 12.7 mph - N/A   Haze
1:55 PM 68.0 °F - 21.2 °F 17% 30.32 in 8.0 mi NW 15.0 mph - N/A   Clear
2:15 PM 66.2 °F - 23.0 °F 19% 30.32 in 6.0 mi NW 15.0 mph - N/A   Haze
2:35 PM 64.4 °F - 23.0 °F 21% 30.33 in 7.0 mi NW 13.8 mph 17.3 mph N/A   Clear
3:15 PM 62.6 °F - 17.6 °F 18% 30.34 in 9.0 mi NW 11.5 mph - N/A   Clear
3:35 PM 62.6 °F - 17.6 °F 18% 30.34 in 9.0 mi NW 8.1 mph - N/A   Clear
3:55 PM 62.6 °F - 15.8 °F 16% 30.34 in 8.0 mi WSW 6.9 mph - N/A   Clear
4:15 PM 60.8 °F - 15.8 °F 17% 30.35 in 9.0 mi WSW 4.6 mph - N/A   Clear
4:35 PM 59.0 °F - 17.6 °F 20% 30.35 in 9.0 mi Calm Calm - N/A   Clear
4:55 PM 53.6 °F - 17.6 °F 24% 30.35 in 9.0 mi SE 5.8 mph - N/A   Clear
5:15 PM 51.8 °F - 17.6 °F 26% 30.36 in 9.0 mi Calm Calm - N/A   Clear
5:35 PM 44.6 °F 40.2 °F 19.4 °F 37% 30.37 in 10.0 mi ESE 8.1 mph - N/A   Clear
5:55 PM 44.6 °F 40.2 °F 17.6 °F 34% 30.37 in 10.0 mi SE 8.1 mph - N/A   Clear
6:15 PM 44.6 °F 39.2 °F 15.8 °F 31% 30.37 in 10.0 mi ESE 10.4 mph - N/A   Clear
6:35 PM 46.4 °F 41.1 °F 14.0 °F 27% 30.37 in 10.0 mi SE 11.5 mph - N/A   Clear
6:55 PM 44.6 °F 38.8 °F 15.8 °F 31% 30.38 in 10.0 mi SE 11.5 mph - N/A   Clear
7:15 PM 44.6 °F 38.8 °F 14.0 °F 29% 30.38 in 10.0 mi SE 11.5 mph - N/A   Clear
7:35 PM 44.6 °F 39.2 °F 14.0 °F 29% 30.39 in 10.0 mi SE 10.4 mph - N/A   Clear
7:55 PM 42.8 °F 37.5 °F 14.0 °F 31% 30.40 in 10.0 mi SE 9.2 mph - N/A   Clear
8:15 PM 42.8 °F 37.0 °F 14.0 °F 31% 30.40 in 10.0 mi ESE 10.4 mph - N/A   Clear
8:35 PM 42.8 °F 36.6 °F 14.0 °F 31% 30.41 in 10.0 mi ESE 11.5 mph - N/A   Clear
8:55 PM 46.4 °F 41.9 °F 14.0 °F 27% 30.42 in 10.0 mi ESE 9.2 mph - N/A   Clear
9:15 PM 46.4 °F 43.5 °F 14.0 °F 27% 30.42 in 10.0 mi ESE 5.8 mph - N/A   Clear
9:35 PM 42.8 °F 39.3 °F 14.0 °F 31% 30.42 in 10.0 mi ESE 5.8 mph - N/A   Clear
9:55 PM 39.2 °F 35.9 °F 14.0 °F 36% 30.42 in 10.0 mi SSE 4.6 mph - N/A   Clear
10:15 PM 39.2 °F 35.0 °F 14.0 °F 36% 30.42 in 10.0 mi SE 5.8 mph - N/A   Clear
10:35 PM 35.6 °F 32.8 °F 14.0 °F 41% 30.42 in 10.0 mi East 3.5 mph - N/A   Clear
10:55 PM 37.4 °F 29.3 °F 14.0 °F 38% 30.41 in 10.0 mi SE 12.7 mph - N/A   Clear
11:15 PM 39.2 °F 32.0 °F 14.0 °F 36% 30.41 in 10.0 mi SE 11.5 mph - N/A   Clear
11:35 PM 39.2 °F 33.6 °F 12.2 °F 33% 30.41 in 10.0 mi ESE 8.1 mph - N/A   Clear
11:55 PM 39.2 °F 32.0 °F 12.2 °F 33% 30.41 in 10.0 mi SE 11.5 mph - N/A   Clear